| time (UTC) | temp F | wind direction | speed knots | gust knots | rain 1hr in | rain 24hr in | rain mn in | humidity % | barometer mb |
| 20260503020903 | 53 | 111 | 1.7 | 1.7 | 0.00 | 0.00 | 0.00 | 61 | 1015.3 |
| 20260503020003 | 53 | 103 | 1.7 | 1.7 | 0.00 | 0.00 | 0.00 | 61 | 1015.4 |
| 20260503015403 | 53 | 105 | 1.7 | 1.7 | 0.00 | 0.00 | 0.00 | 61 | 1015.4 |
| 20260503014503 | 53 | 107 | 1.7 | 2.6 | 0.00 | 0.00 | 0.00 | 61 | 1015.5 |
| 20260503013603 | 53 | 107 | 1.7 | 1.7 | 0.00 | 0.00 | 0.00 | 60 | 1015.5 |
| 20260503012703 | 53 | 110 | 1.7 | 1.7 | 0.00 | 0.00 | 0.00 | 60 | 1015.6 |
| 20260503011803 | 54 | 115 | 0.9 | 1.7 | 0.00 | 0.00 | 0.00 | 59 | 1015.7 |
| 20260503010903 | 54 | 126 | 0.9 | 1.7 | 0.00 | 0.00 | 0.00 | 59 | 1015.8 |
| 20260503010217 | 54 | 136 | 0.9 | 1.7 | 0.00 | 0.00 | 0.00 | 59 | 1015.8 |
| 20260503005403 | 54 | 129 | 0.9 | 1.7 | 0.00 | 0.00 | 0.00 | 60 | 1015.8 |
| 20260503004503 | 54 | 116 | 1.7 | 1.7 | 0.00 | 0.00 | 0.00 | 60 | 1015.8 |
| 20260503003603 | 54 | 112 | 1.7 | 2.6 | 0.00 | 0.00 | 0.00 | 60 | 1015.9 |
| 20260503002704 | 54 | 113 | 1.7 | 1.7 | 0.00 | 0.00 | 0.00 | 60 | 1016.0 |
| 20260503001803 | 54 | 111 | 1.7 | 1.7 | 0.00 | 0.00 | 0.00 | 60 | 1016.0 |
| 20260503000903 | 54 | 110 | 1.7 | 1.7 | 0.00 | 0.00 | 0.00 | 59 | 1016.1 |
| 20260503000003 | 54 | 111 | 1.7 | 2.6 | 0.00 | 0.00 | 0.00 | 59 | 1016.4 |
| 20260502235403 | 54 | 110 | 1.7 | 2.6 | 0.00 | 0.00 | 0.00 | 59 | 1016.3 |
| 20260502234503 | 54 | 110 | 1.7 | 2.6 | 0.00 | 0.00 | 0.00 | 60 | 1016.4 |
| 20260502233603 | 54 | 111 | 1.7 | 2.6 | 0.00 | 0.00 | 0.00 | 60 | 1016.6 |
| 20260502232703 | 54 | 112 | 1.7 | 2.6 | 0.00 | 0.00 | 0.00 | 60 | 1016.9 |
| 20260502231803 | 54 | 113 | 1.7 | 2.6 | 0.00 | 0.00 | 0.00 | 60 | 1016.9 |
| 20260502230903 | 53 | 113 | 1.7 | 1.7 | 0.00 | 0.00 | 0.00 | 60 | 1016.9 |
| 20260502230003 | 53 | 110 | 1.7 | 1.7 | 0.00 | 0.00 | 0.00 | 60 | 1017.0 |
| 20260502225403 | 53 | 110 | 1.7 | 1.7 | 0.00 | 0.00 | 0.00 | 60 | 1017.0 |
| 20260502224503 | 53 | 109 | 1.7 | 1.7 | 0.00 | 0.00 | 0.00 | 60 | 1017.1 |
| 20260502223603 | 53 | 95 | 0.9 | 1.7 | 0.00 | 0.00 | 0.00 | 59 | 1017.1 |
| 20260502222703 | 53 | 109 | 0.0 | 1.7 | 0.00 | 0.00 | 0.00 | 59 | 1017.2 |
| 20260502221803 | 53 | 105 | 0.0 | 1.7 | 0.00 | 0.00 | 0.00 | 59 | 1017.2 |
| 20260502220903 | 53 | 112 | 0.9 | 1.7 | 0.00 | 0.00 | 0.00 | 59 | 1017.2 |
| 20260502220003 | 53 | 118 | 0.9 | 1.7 | 0.00 | 0.00 | 0.00 | 58 | 1017.2 |
| 20260502215404 | 54 | 126 | 0.9 | 2.6 | 0.00 | 0.00 | 0.00 | 58 | 1017.0 |
| 20260502214503 | 54 | 112 | 1.7 | 2.6 | 0.00 | 0.00 | 0.00 | 58 | 1017.2 |
| 20260502213603 | 54 | 117 | 1.7 | 2.6 | 0.00 | 0.00 | 0.00 | 58 | 1017.2 |
| 20260502212703 | 54 | 124 | 1.7 | 2.6 | 0.00 | 0.00 | 0.00 | 57 | 1017.1 |
| 20260502211803 | 54 | 118 | 1.7 | 2.6 | 0.00 | 0.00 | 0.00 | 57 | 1017.3 |
| 20260502210903 | 53 | 111 | 1.7 | 2.6 | 0.00 | 0.00 | 0.00 | 57 | 1017.1 |
| 20260502210003 | 53 | 99 | 1.7 | 2.6 | 0.00 | 0.00 | 0.00 | 58 | 1017.5 |
| 20260502205403 | 53 | 102 | 0.9 | 2.6 | 0.00 | 0.00 | 0.00 | 57 | 1017.5 |
| 20260502204503 | 54 | 143 | 0.9 | 1.7 | 0.00 | 0.00 | 0.00 | 57 | 1017.5 |
| 20260502203603 | 54 | 163 | 1.7 | 3.5 | 0.00 | 0.00 | 0.00 | 56 | 1017.7 |
| 20260502202703 | 54 | 166 | 1.7 | 3.5 | 0.00 | 0.00 | 0.00 | 56 | 1017.5 |
| 20260502201803 | 55 | 187 | 1.7 | 3.5 | 0.00 | 0.00 | 0.00 | 56 | 1017.5 |
| 20260502201118 | 55 | 180 | 1.7 | 2.6 | 0.00 | 0.00 | 0.00 | 56 | 1017.7 |
| 20260502200003 | 55 | 152 | 1.7 | 2.6 | 0.00 | 0.00 | 0.00 | 55 | 1017.7 |
| 20260502195403 | 55 | 156 | 0.9 | 2.6 | 0.00 | 0.00 | 0.00 | 55 | 1017.5 |
| 20260502194503 | 55 | 155 | 1.7 | 3.5 | 0.00 | 0.00 | 0.00 | 55 | 1017.7 |
| 20260502193603 | 55 | 162 | 1.7 | 4.3 | 0.00 | 0.00 | 0.00 | 55 | 1017.7 |
| 20260502192703 | 55 | 147 | 0.9 | 2.6 | 0.00 | 0.00 | 0.00 | 54 | 1017.7 |
| 20260502191803 | 56 | 202 | 0.9 | 2.6 | 0.00 | 0.00 | 0.00 | 54 | 1017.5 |
| 20260502190903 | 56 | 159 | 1.7 | 3.5 | 0.00 | 0.00 | 0.00 | 54 | 1017.5 |
| 20260502190004 | 56 | 150 | 1.7 | 5.2 | 0.00 | 0.00 | 0.00 | 54 | 1017.4 |
| 20260502185403 | 56 | 125 | 2.6 | 5.2 | 0.00 | 0.00 | 0.00 | 53 | 1017.5 |
| 20260502184503 | 57 | 111 | 1.7 | 4.3 | 0.00 | 0.00 | 0.00 | 53 | 1017.4 |
| 20260502183603 | 57 | 121 | 1.7 | 4.3 | 0.00 | 0.00 | 0.00 | 53 | 1017.3 |
| 20260502182703 | 57 | 76 | 0.9 | 3.5 | 0.00 | 0.00 | 0.00 | 53 | 1017.1 |
| 20260502182018 | 57 | 94 | 1.7 | 4.3 | 0.00 | 0.00 | 0.00 | 53 | 1017.1 |
| 20260502180903 | 57 | 95 | 1.7 | 5.2 | 0.00 | 0.00 | 0.00 | 53 | 1017.1 |
| 20260502163603 | 63 | 221 | 7.0 | 10.4 | 0.00 | 0.00 | 0.00 | 49 | 1017.1 |
| 20260502162703 | 64 | 216 | 5.2 | 10.4 | 0.00 | 0.00 | 0.00 | 48 | 1017.1 |
| 20260502161803 | 65 | 236 | 6.1 | 11.3 | 0.00 | 0.00 | 0.00 | 47 | 1017.1 |
| 20260502160903 | 65 | 232 | 4.3 | 9.6 | 0.00 | 0.00 | 0.00 | 47 | 1017.2 |
| 20260502152017 | 68 | 251 | 3.5 | 9.6 | 0.00 | 0.00 | 0.00 | 42 | 1017.8 |
| 20260502150903 | 67 | 248 | 4.3 | 9.6 | 0.00 | 0.00 | 0.00 | 42 | 1017.8 |
| 20260502123603 | 68 | 252 | 4.3 | 10.4 | 0.00 | 0.00 | 0.00 | 42 | 1019.1 |
| 20260502122703 | 67 | 283 | 3.5 | 9.6 | 0.00 | 0.00 | 0.00 | 42 | 1019.1 |
| 20260502121803 | 68 | 261 | 3.5 | 10.4 | 0.00 | 0.00 | 0.00 | 43 | 1019.3 |
| 20260502120903 | 67 | 248 | 3.5 | 10.4 | 0.00 | 0.00 | 0.00 | 43 | 1019.3 |
| 20260502115403 | 68 | 267 | 2.6 | 7.0 | 0.00 | 0.00 | 0.00 | 45 | 1019.4 |
| 20260502114503 | 66 | 251 | 3.5 | 9.6 | 0.00 | 0.00 | 0.00 | 44 | 1019.4 |
| 20260502113603 | 65 | 247 | 4.3 | 13.9 | 0.00 | 0.00 | 0.00 | 44 | 1019.5 |
| 20260502112703 | 66 | 264 | 3.5 | 7.8 | 0.00 | 0.00 | 0.00 | 45 | 1019.5 |
| 20260502111803 | 67 | 272 | 3.5 | 8.7 | 0.00 | 0.00 | 0.00 | 44 | 1019.7 |
| 20260502110903 | 65 | 243 | 3.5 | 8.7 | 0.00 | 0.00 | 0.00 | 44 | 1019.7 |
| 20260502110003 | 66 | 248 | 2.6 | 7.8 | 0.00 | 0.00 | 0.00 | 43 | 1019.8 |
| 20260502105617 | 65 | 250 | 2.6 | 8.7 | 0.00 | 0.00 | 0.00 | 44 | 1019.9 |
| 20260502104503 | 66 | 270 | 2.6 | 7.0 | 0.00 | 0.00 | 0.00 | 43 | 1019.9 |
| 20260502103603 | 67 | 282 | 1.7 | 5.2 | 0.00 | 0.00 | 0.00 | 42 | 1020.1 |
| 20260502102703 | 66 | 269 | 1.7 | 5.2 | 0.00 | 0.00 | 0.00 | 43 | 1020.2 |
| 20260502101116 | 65 | 284 | 1.7 | 3.5 | 0.00 | 0.00 | 0.00 | 43 | 1020.3 |
| 20260502100217 | 64 | 269 | 2.6 | 9.6 | 0.00 | 0.00 | 0.00 | 44 | 1020.5 |
| 20260502091118 | 62 | 260 | 2.6 | 9.6 | 0.00 | 0.00 | 0.00 | 45 | 1021.0 |
| 20260502090217 | 63 | 264 | 1.7 | 5.2 | 0.00 | 0.00 | 0.00 | 45 | 1021.0 |
| 20260502070903 | 58 | 276 | 0.0 | 1.7 | 0.00 | 0.00 | 0.00 | 48 | 1021.2 |
| 20260502070003 | 58 | 266 | 0.0 | 1.7 | 0.00 | 0.00 | 0.00 | 48 | 1021.2 |
| 20260502065403 | 57 | 275 | 0.9 | 2.6 | 0.00 | 0.00 | 0.00 | 49 | 1021.2 |
| 20260502064503 | 57 | 345 | 0.0 | 1.7 | 0.00 | 0.00 | 0.00 | 49 | 1021.2 |
| 20260502063817 | 57 | 332 | 0.0 | 1.7 | 0.00 | 0.00 | 0.00 | 50 | 1021.3 |
| 20260502062703 | 56 | 245 | 0.0 | 2.6 | 0.00 | 0.00 | 0.00 | 51 | 1021.3 |
| 20260502061803 | 56 | 349 | 0.0 | 1.7 | 0.00 | 0.00 | 0.00 | 53 | 1021.4 |
| 20260502060903 | 56 | 70 | 0.0 | 1.7 | 0.00 | 0.00 | 0.00 | 55 | 1021.3 |
| 20260502060003 | 55 | 65 | 0.0 | 1.7 | 0.00 | 0.00 | 0.00 | 58 | 1021.3 |
| 20260502055403 | 54 | 42 | 0.9 | 2.6 | 0.00 | 0.00 | 0.00 | 57 | 1021.2 |
| 20260502054505 | 53 | 42 | 0.9 | 3.5 | 0.00 | 0.00 | 0.00 | 58 | 1021.2 |
| 20260502053603 | 52 | 50 | 0.9 | 2.6 | 0.00 | 0.00 | 0.00 | 59 | 1021.3 |
| 20260502052703 | 51 | 31 | 0.9 | 2.6 | 0.00 | 0.00 | 0.00 | 60 | 1021.5 |
| 20260502051803 | 50 | 36 | 1.7 | 3.5 | 0.00 | 0.00 | 0.00 | 60 | 1021.4 |
| 20260502050903 | 49 | 45 | 0.0 | 1.7 | 0.00 | 0.00 | 0.00 | 61 | 1021.4 |
| 20260502050218 | 48 | 0 | 0.0 | 0.0 | 0.00 | 0.00 | 0.00 | 60 | 1021.5 |
| 20260502045403 | 48 | 20 | 0.0 | 1.7 | 0.00 | 0.00 | 0.00 | 60 | 1021.3 |
| 20260502044504 | 48 | 20 | 1.7 | 3.5 | 0.00 | 0.00 | 0.00 | 60 | 1021.3 |
| 20260502043603 | 48 | 22 | 2.6 | 4.3 | 0.00 | 0.00 | 0.00 | 60 | 1021.3 |
| 20260502042703 | 48 | 25 | 2.6 | 4.3 | 0.00 | 0.00 | 0.00 | 61 | 1021.3 |
| 20260502041803 | 47 | 76 | 2.6 | 3.5 | 0.00 | 0.00 | 0.00 | 61 | 1021.4 |
| 20260502040903 | 47 | 42 | 2.6 | 3.5 | 0.00 | 0.00 | 0.00 | 62 | 1021.3 |
| 20260502040217 | 47 | 31 | 3.5 | 3.5 | 0.00 | 0.00 | 0.00 | 62 | 1021.3 |
| 20260502035403 | 47 | 59 | 2.6 | 3.5 | 0.00 | 0.00 | 0.00 | 61 | 1021.4 |
| 20260502034503 | 47 | 98 | 1.7 | 2.6 | 0.00 | 0.00 | 0.00 | 62 | 1021.3 |
| 20260502033603 | 46 | 137 | 0.9 | 1.7 | 0.00 | 0.00 | 0.00 | 62 | 1021.3 |
| 20260502032703 | 47 | 22 | 0.9 | 3.5 | 0.00 | 0.00 | 0.00 | 61 | 1021.2 |
| 20260502031803 | 47 | 24 | 3.5 | 4.3 | 0.00 | 0.00 | 0.00 | 62 | 1021.2 |
| 20260502030903 | 47 | 35 | 2.6 | 4.3 | 0.00 | 0.00 | 0.00 | 62 | 1021.2 |
| 20260502030003 | 46 | 37 | 2.6 | 5.2 | 0.00 | 0.00 | 0.00 | 62 | 1021.3 |
| 20260502025403 | 47 | 29 | 2.6 | 3.5 | 0.00 | 0.00 | 0.00 | 62 | 1021.3 |
| 20260502024503 | 47 | 33 | 2.6 | 3.5 | 0.00 | 0.00 | 0.00 | 62 | 1021.5 |
| 20260502023817 | 47 | 29 | 2.6 | 3.5 | 0.00 | 0.00 | 0.00 | 62 | 1021.4 |
| 20260502022703 | 47 | 34 | 1.7 | 3.5 | 0.00 | 0.00 | 0.00 | 62 | 1021.4 |
| 20260502021803 | 46 | 49 | 2.6 | 2.6 | 0.00 | 0.00 | 0.00 | 62 | 1021.4 |